Regional Weather Roundup
Issued by NWS Sterling, VA

Home | Current Version | Previous Version | Graphics & Text | Print | Product List | Glossary On
Versions: 1 2 3 4 5 6 7 8 9 10 11 12 13 14 15 16 17 18 19 20 21 22 23 24 25 26 27 28 29 30 31 32 33 34 35 36 37 38 39 40 41 42 43 44 45 46 47 48 49 50
000
ASUS41 KLWX 270210
RWRLWX

REGIONAL WEATHER ROUNDUP
NATIONAL WEATHER SERVICE BALTIMORE MD/WASHINGTON DC
900 PM EST MON JAN 26 2015

Note: "FAIR" indicates few or no clouds below 12,000 feet
with no significant weather and/or obstructions to visibility.
 TC=TEMPERATURE CELSIUS

 * =Non NWS site. Station does not report precipitation (e.g. rain,
    snow, etc.), thunder, or fog.

DCZ001-MDZ009-015-VAZ040>042-051-053>054-270300-
WASHINGTON METRO

CITY           SKY/WX    TMP DP  RH WIND       PRES   REMARKS
WASHINGTON NAT LGT SNOW  32  27  80 NW13      29.77R WCI  22
DULLES         LGT SNOW  27  23  86 N13       29.77R VSB 3/4 WCI  16
FT BELVOIR     MIX PCPN  28  25  86 NW14      29.76R FOG     WCI  17
QUANTICO       LGT RAIN  30  26  85 N12       29.77R WCI  20
COLLEGE PARK*  CLOUDY    30  28  93 N7        29.75S
LEESBURG*      LGT SNOW  28  28 100 N8        29.79S WCI  20
GAITHERSBURG*  CLOUDY    25  19  80 NW7       29.79R

$$

MDZ006>007-011-014-270300-
BALTIMORE METRO

CITY           SKY/WX    TMP DP  RH WIND       PRES   REMARKS
BWI AIRPORT    LGT SNOW  28  24  85 N7        29.74R
MD SCIENCE CTR   N/A     28  23  81 MISG      29.75R
MARTIN STATE   FLURRIES  30  27  86 N9        29.76S WCI  22
ANNAPOLIS      LGT SNOW  30  26  85 N10       29.74R FOG     WCI  21
FORT MEADE*    CLOUDY    30  27  86 NE6       29.77R

$$

MDZ012-015-019>023-270300-
MARYLAND EASTERN SHORE

CITY           SKY/WX    TMP DP  RH WIND       PRES   REMARKS
OCEAN CITY     CLOUDY    37  35  92 N22G33    29.59S FOG     WCI  26
SALISBURY      MIX PCPN  35  31  85 N15G24    29.62S FOG     WCI  25
BAY BRIDGE AP*   N/A     30  27  86 N9        29.73R WCI  22
CAMBRIDGE*     CLOUDY    34  32  93 CALM      29.67S
EASTON*        LGTSLEET  32  32 100 NE14      29.73R FOG     WCI  22

$$

MDZ017>025-270300-
SOUTHERN MARYLAND

CITY           SKY/WX    TMP DP  RH WIND       PRES   REMARKS
PATUXENT RIVER FRZ RAIN  32  27  81 N16       29.69R WCI  21
ST INIGOES     CLOUDY    32  27  81 N9        29.68R WCI  24
LEONARDTOWN*   CLOUDY    32  28  86 N8        29.70S WCI  25

$$

MDZ003>005-270300-
NORTH CENTRAL MARYLAND

CITY           SKY/WX    TMP DP  RH WIND       PRES   REMARKS
FREDERICK*     LGT SNOW  28  21  74 NE8       29.82S WCI  20
HAGERSTOWN APT LGT SNOW  25  22  88 NW13      29.79S FOG     WCI  14
WESTMINSTER*   LGT SNOW  23  21  93 N6        29.74S

$$

MDZ501>502-270300-
WESTERN MARYLAND

CITY           SKY/WX    TMP DP  RH WIND       PRES   REMARKS
OAKLAND*       CLOUDY    21 N/A N/A W3        29.69S HAZE
CUMBERLAND*    CLOUDY    28  27  93 CALM      29.84S

$$

VAZ025>031-270300-
SHENANDOAH VALLEY

CITY           SKY/WX    TMP DP  RH WIND       PRES   REMARKS
WINCHESTER*    LGT SNOW  28  23  80 CALM      29.79R
FRONT ROYAL*   CLOUDY    27  27 100 NE3       29.78R
LURAY*         LGT SNOW  30  30 100 NE5       29.76S
NEW MARKET*    CLOUDY    29  27  93 NE3       29.75S
STAUNTON*      LGT SNOW  31  28  88 N12       29.74S WCI  22
WAYNESBORO*    CLOUDY    30  30  99 N7        29.70S

$$

WVZ021-048>050-054>055-270300-
EASTERN WEST VIRGINIA PANHANDLE

CITY           SKY/WX    TMP DP  RH WIND       PRES   REMARKS
MARTINSBURG    LGT SNOW  27  22  81 N7        29.80S VSB 1
PETERSBURG*    FLURRIES  30  29  94 CALM      29.79S

$$

VAZ036>039-050-270300-
CENTRAL FOOTHILLS

CITY           SKY/WX    TMP DP  RH WIND       PRES   REMARKS
CHARLOTTESVILL LGT SNOW  32  29  88 NE7       29.73R FOG
CULPEPER*      LGT SNOW  30  30 100 N9        29.77R WCI  22
ORANGE*        LGT SNOW  32  30  93 N12       29.76R WCI  23
GORDONSVILLE*  CLOUDY    31  28  90 NE8       29.73S FOG     WCI  23
WARRENTON*     LGT SNOW  31  31 100 NW13      29.75S WCI  21

$$

VAZ055>057-270300-
NORTH AND CENTRAL PIEDMONT

CITY           SKY/WX    TMP DP  RH WIND       PRES   REMARKS
FREDERICKSBRG* CLOUDY    31  30  96 NW14      29.75R WCI  21
STAFFORD*      LGT SNOW  29  29 100 CALM      29.79S

$$

NCZ024-NYZ072-PAZ021-071-VAZ022-071-270300-
OTHER REGIONAL OBSERVATIONS

CITY           SKY/WX    TMP DP  RH WIND       PRES   REMARKS
NEW YORK CITY  LGT SNOW  27  20  75 NE13G29   29.80F WCI  16
PHILADELPHIA   FLURRIES  28  22  78 NE20G32   29.73F WCI  15
PITTSBURGH     CLOUDY    22  18  85 NW9       29.83R WCI  12
ROANOKE        CLOUDY    35  24  64 NW8G20    29.75R WCI  29
RICHMOND       CLOUDY    35  32  88 N13G22    29.69S WCI  26
RALEIGH        LGT RAIN  43  39  86 N6        29.68S

$$

ANZ530>537-270300-
MARINE OBSERVATIONS

STATION/POSITION TIME  TEMP    WIND        PRES
                       AIR SEA DIR/SP/G
                 (UTC) (F)     (DEG/KT/KT) (MB)
THOMAS PT LIGHT  0200   31 37   10/ 20/ 21 1007.4R
BALT KEY BRIDGE  0200   29                 1007.1S
COVE POINT       0200   31                 1005.1S
LEWISETTA        0200   33 39              1004.7S
SOLOMONS ISLAND  0200      39                N/A
PINEY POINT      0100          360/ 13/ 15   N/A

$$



USA.gov is the U.S. government's official web portal to all federal, state and local government web resources and services.